sat.trackr.live / text

‹ back to catalog

DEIMOS

NORAD 60526 · 2024-149BL

PAYLOAD ACTIVE UNKNOWN

§ Identity

Operator
Country
US
Launch date
2024-08-16
Launch site
AFWTR
Launch vehicle
Mass (kg)
RCS (m²)

External: N2YO · Heavens-Above · Gunter

§ Orbital elements

Epoch: 2026-05-25T03:21:32.652864Z

Period
93.31 min
Inclination
97.3778°
Eccentricity
0.0005268
Mean motion
15.43291121 rev/d
Perigee alt
432.8 km
Apogee alt
440.0 km
Semi-major
6,814.5 km
B*
4.0772e-4
RAAN
230.9554°
Arg perigee
24.4470°
Mean anomaly
335.7026°
Rev number
9,889

§ Raw data

DEIMOS1 60526U 24149BL  26145.13996126  .00018084  00000+0  40772-3 0  99972 60526  97.3778 230.9554 0005268  24.4470 335.7026 15.43291121 98891

JSON: /api/v1/satellites/60526 · /tle

For live sub-satellite position, see the globe view (requires WebGL).

§ Visibility from observer

Set your observer location to see the next 7 days of passes ≥ 10°. The values pass through the URL so the page stays shareable.

No JS? Fill the form by hand. The geolocation button needs JavaScript.

§ Radio — SatNOGS DB

ModeDescriptionDownlinkUplink
FM Mode U - Downlink 1 400.200 MHz
GMSK Mode U - GMSK9k6 400.300 MHz
GMSK UHF 9k6 Emergency (inactive) 401.500 MHz

3 transmitters · refreshed weekly from db.satnogs.org